TOM2DL LGKO-EGSS

Flight info

Callsign TOM2DL
Flight time 3h 34m
Altitude 38000
Route LARKI UL609 MES DCT GIKAS DCT FSK UL608 DISOR DCT LONTA UL608 DOLEV DCT GENLU DCT PODOB DCT KEB DCT BOSNA DCT MARIL DCT OKSIG DCT DEVUL DCT ABISO DCT NIPEL DCT ERKIR DCT BABEG DCT ADENU L608 LIRSU DCT SOGRI DCT HELEN DCT KOZUF DCT IMPOH DCT SASKI L608 SUMUM Y6 TOSVA
Aircraft B738/M-SDE2E3FGHIRWXY/LB1

Departure

Time 2026-05-08 17:07
Airport Kos International Airport "Ippokratis" (LGKO)

Arrival

Time 2026-05-08 20:42
Airport London Stansted Airport (EGSS)
Time Latitude Longitude Altitude Speed Heading
2026-05-08 16:55 36.80107 27.08941 440 ft 0 kts 57°
2026-05-08 17:01 36.80101 27.08930 428 ft 4 kts 48°
2026-05-08 17:01 36.80089 27.08909 450 ft 4 kts 52°
2026-05-08 17:01 36.80071 27.08888 421 ft 4 kts 12°
2026-05-08 17:01 36.80050 27.08893 427 ft 4 kts 328°
2026-05-08 17:02 36.80035 27.08904 435 ft 0 kts 328°
2026-05-08 17:05 36.80036 27.08904 435 ft 1 kts 328°
2026-05-08 17:05 36.80103 27.08855 442 ft 21 kts 329°
2026-05-08 17:05 36.80231 27.08758 441 ft 21 kts 329°
2026-05-08 17:06 36.80324 27.08662 444 ft 11 kts 294°
2026-05-08 17:06 36.80344 27.08571 442 ft 8 kts 284°
2026-05-08 17:06 36.80346 27.08562 442 ft 2 kts 283°
2026-05-08 17:06 36.80333 27.08457 435 ft 17 kts 207°
2026-05-08 17:07 36.80199 27.08540 431 ft 48 kts 149°
2026-05-08 17:07 36.79657 27.08962 440 ft 133 kts 148°
2026-05-08 17:07 36.78712 27.09704 751 ft 178 kts 148°
2026-05-08 17:07 36.77608 27.10581 1602 ft 201 kts 148°
2026-05-08 17:08 36.76789 27.11233 1939 ft 220 kts 146°
2026-05-08 17:08 36.75749 27.12680 2614 ft 232 kts 119°
2026-05-08 17:08 36.75231 27.14616 3258 ft 240 kts 104°
2026-05-08 17:08 36.75021 27.16775 3638 ft 264 kts 84°
2026-05-08 17:09 36.75700 27.18936 4387 ft 273 kts 61°
2026-05-08 17:09 36.76626 27.21034 5277 ft 280 kts 62°
2026-05-08 17:09 36.77569 27.23204 6088 ft 288 kts 59°
2026-05-08 17:09 36.78646 27.25337 6920 ft 293 kts 50°
2026-05-08 17:10 36.80178 27.26951 7646 ft 289 kts 22°
2026-05-08 17:10 36.82081 27.27520 8008 ft 277 kts 354°
2026-05-08 17:10 36.83961 27.27077 8103 ft 277 kts 334°
2026-05-08 17:10 36.85593 27.25903 8646 ft 274 kts 322°
2026-05-08 17:11 36.87143 27.24580 9817 ft 267 kts 322°
2026-05-08 17:11 36.88682 27.23271 10659 ft 272 kts 323°
2026-05-08 17:11 36.90322 27.21881 10900 ft 298 kts 323°
2026-05-08 17:11 36.92096 27.20341 11130 ft 321 kts 321°
2026-05-08 17:12 36.93940 27.18742 11870 ft 326 kts 322°
2026-05-08 17:12 36.95780 27.17011 12465 ft 334 kts 320°
2026-05-08 17:12 36.97625 27.15219 13245 ft 338 kts 320°
2026-05-08 17:12 36.99485 27.13406 14020 ft 341 kts 320°
2026-05-08 17:13 37.01376 27.11569 14645 ft 347 kts 320°
2026-05-08 17:13 37.03296 27.09711 15312 ft 351 kts 320°
2026-05-08 17:13 37.05215 27.07862 16026 ft 353 kts 320°
2026-05-08 17:13 37.07171 27.05981 16716 ft 357 kts 320°
2026-05-08 17:14 37.09150 27.04081 17376 ft 361 kts 320°
2026-05-08 17:14 37.11153 27.02158 18025 ft 365 kts 320°
2026-05-08 17:14 37.13177 27.00215 18633 ft 368 kts 320°
2026-05-08 17:14 37.15217 26.98256 19207 ft 371 kts 320°
2026-05-08 17:15 37.17275 26.96280 19778 ft 374 kts 320°
2026-05-08 17:15 37.19350 26.94285 20352 ft 377 kts 320°
2026-05-08 17:15 37.21440 26.92274 20914 ft 380 kts 320°
2026-05-08 17:15 37.23547 26.90246 21457 ft 383 kts 320°
2026-05-08 17:16 37.25673 26.88197 21987 ft 387 kts 319°
2026-05-08 17:16 37.27816 26.86130 22503 ft 390 kts 319°
2026-05-08 17:16 37.29949 26.84069 22971 ft 395 kts 319°
2026-05-08 17:16 37.32133 26.81961 23465 ft 398 kts 319°
2026-05-08 17:17 37.34338 26.79831 23931 ft 401 kts 319°
2026-05-08 17:17 37.36549 26.77695 24377 ft 402 kts 319°
2026-05-08 17:17 37.38774 26.75544 24828 ft 404 kts 318°
2026-05-08 17:17 37.41002 26.73387 25256 ft 406 kts 318°
2026-05-08 17:18 37.43246 26.71212 25676 ft 408 kts 318°
2026-05-08 17:18 37.45500 26.69027 26090 ft 410 kts 318°
2026-05-08 17:18 37.47764 26.66829 26497 ft 412 kts 318°
2026-05-08 17:18 37.50040 26.64617 26892 ft 414 kts 318°
2026-05-08 17:19 37.52325 26.62396 27276 ft 416 kts 318°
2026-05-08 17:19 37.54590 26.60192 27645 ft 418 kts 318°
2026-05-08 17:19 37.56898 26.57945 28015 ft 420 kts 318°
2026-05-08 17:19 37.59215 26.55688 28378 ft 422 kts 317°
2026-05-08 17:20 37.61546 26.53415 28726 ft 424 kts 317°
2026-05-08 17:20 37.63882 26.51134 29096 ft 426 kts 317°
2026-05-08 17:20 37.66235 26.48835 29428 ft 428 kts 317°
2026-05-08 17:20 37.68596 26.46526 29756 ft 430 kts 317°
2026-05-08 17:21 37.70963 26.44209 30141 ft 431 kts 317°
2026-05-08 17:21 37.73328 26.41896 30565 ft 429 kts 317°
2026-05-08 17:21 37.75677 26.39595 30993 ft 426 kts 317°
2026-05-08 17:21 37.78019 26.37300 31345 ft 426 kts 317°
2026-05-08 17:22 37.80329 26.35031 31665 ft 426 kts 317°
2026-05-08 17:22 37.82669 26.32732 32021 ft 426 kts 317°
2026-05-08 17:22 37.85001 26.30439 32455 ft 423 kts 316°
2026-05-08 17:22 37.87308 26.28170 33046 ft 417 kts 316°
2026-05-08 17:23 37.89592 26.25923 33456 ft 415 kts 316°
2026-05-08 17:23 37.91877 26.23669 33723 ft 417 kts 316°
2026-05-08 17:23 37.94164 26.21410 34017 ft 417 kts 316°
2026-05-08 17:23 37.96451 26.19150 34347 ft 416 kts 316°
2026-05-08 17:24 37.98729 26.16900 34661 ft 415 kts 316°
2026-05-08 17:24 38.01003 26.14650 34917 ft 415 kts 316°
2026-05-08 17:24 38.03279 26.12397 35160 ft 415 kts 316°
2026-05-08 17:24 38.05554 26.10143 35441 ft 415 kts 316°
2026-05-08 17:25 38.07793 26.07924 35721 ft 414 kts 316°
2026-05-08 17:25 38.10059 26.05675 35976 ft 414 kts 316°
2026-05-08 17:25 38.12327 26.03422 36247 ft 414 kts 316°
2026-05-08 17:25 38.14592 26.01171 36507 ft 413 kts 316°
2026-05-08 17:26 38.16853 25.98922 36761 ft 413 kts 316°
2026-05-08 17:26 38.19114 25.96670 37008 ft 413 kts 316°
2026-05-08 17:26 38.21377 25.94416 37251 ft 413 kts 315°
2026-05-08 17:26 38.23644 25.92154 37402 ft 416 kts 316°
2026-05-08 17:27 38.25922 25.89886 37619 ft 416 kts 316°
2026-05-08 17:27 38.28212 25.87642 37905 ft 415 kts 316°
2026-05-08 17:27 38.30476 25.85445 38091 ft 416 kts 316°
2026-05-08 17:27 38.32788 25.83204 38077 ft 419 kts 316°
2026-05-08 17:28 38.37417 25.78715 38077 ft 416 kts 316°
2026-05-08 17:28 38.41997 25.74258 38081 ft 413 kts 316°
2026-05-08 17:29 38.46554 25.69807 38080 ft 412 kts 316°
2026-05-08 17:29 38.51097 25.65359 38079 ft 412 kts 316°
2026-05-08 17:30 38.55632 25.60909 38089 ft 417 kts 316°
2026-05-08 17:30 38.60276 25.56343 38086 ft 424 kts 316°
2026-05-08 17:31 38.64966 25.51732 38075 ft 426 kts 316°
2026-05-08 17:31 38.69667 25.47103 38066 ft 428 kts 317°
2026-05-08 17:32 38.74386 25.42447 38067 ft 428 kts 317°
2026-05-08 17:32 38.79106 25.37781 38063 ft 429 kts 317°
2026-05-08 17:33 38.83798 25.33135 38061 ft 429 kts 317°
2026-05-08 17:33 38.88514 25.28457 38067 ft 428 kts 317°
2026-05-08 17:34 38.93224 25.23777 38054 ft 428 kts 317°
2026-05-08 17:34 38.97924 25.19098 38065 ft 427 kts 317°
2026-05-08 17:35 39.02615 25.14420 38060 ft 426 kts 317°
2026-05-08 17:35 39.07295 25.09745 38050 ft 426 kts 317°
2026-05-08 17:36 39.11970 25.05067 38049 ft 425 kts 317°
2026-05-08 17:36 39.16608 25.00417 38081 ft 425 kts 316°
2026-05-08 17:37 39.21277 24.95728 38059 ft 425 kts 316°
2026-05-08 17:37 39.25946 24.91031 38054 ft 426 kts 316°
2026-05-08 17:38 39.30612 24.86329 38051 ft 426 kts 316°
2026-05-08 17:38 39.35280 24.81617 38049 ft 426 kts 316°
2026-05-08 17:39 39.39944 24.76900 38052 ft 426 kts 316°
2026-05-08 17:39 39.44577 24.72206 38049 ft 426 kts 316°
2026-05-08 17:40 39.49243 24.67472 38067 ft 426 kts 317°
2026-05-08 17:40 39.53912 24.62727 38058 ft 427 kts 317°
2026-05-08 17:41 39.58587 24.57967 38057 ft 428 kts 317°
2026-05-08 17:41 39.63271 24.53188 38058 ft 429 kts 317°
2026-05-08 17:42 39.67959 24.48396 38055 ft 429 kts 317°
2026-05-08 17:42 39.72654 24.43589 38057 ft 430 kts 317°
2026-05-08 17:43 39.77349 24.38772 38055 ft 431 kts 317°
2026-05-08 17:43 39.82030 24.33962 38066 ft 432 kts 317°
2026-05-08 17:44 39.86746 24.29106 38063 ft 433 kts 317°
2026-05-08 17:44 39.91471 24.24233 38060 ft 434 kts 317°
2026-05-08 17:45 39.96204 24.19344 38060 ft 434 kts 317°
2026-05-08 17:45 40.00935 24.14446 38060 ft 434 kts 317°
2026-05-08 17:46 40.05640 24.09567 38056 ft 435 kts 317°
2026-05-08 17:46 40.10378 24.04645 38080 ft 436 kts 317°
2026-05-08 17:47 40.15125 23.99704 38071 ft 437 kts 317°
2026-05-08 17:47 40.19071 23.95590 38073 ft 437 kts 317°
2026-05-08 17:48 40.24628 23.89786 38067 ft 437 kts 317°
2026-05-08 17:48 40.29380 23.84812 38066 ft 437 kts 317°
2026-05-08 17:49 40.34101 23.79863 38070 ft 437 kts 317°
2026-05-08 17:49 40.38847 23.74877 38065 ft 437 kts 317°
2026-05-08 17:50 40.43591 23.69884 38070 ft 437 kts 317°
2026-05-08 17:50 40.48331 23.64887 38064 ft 437 kts 317°
2026-05-08 17:51 40.53067 23.59884 38060 ft 436 kts 317°
2026-05-08 17:51 40.57797 23.54878 38079 ft 437 kts 317°
2026-05-08 17:52 40.62495 23.49896 38068 ft 437 kts 317°
2026-05-08 17:53 40.69582 23.42364 38075 ft 436 kts 317°
2026-05-08 17:53 40.74300 23.37338 38069 ft 436 kts 317°
2026-05-08 17:54 40.79016 23.32304 38069 ft 436 kts 317°
2026-05-08 17:54 40.83734 23.27259 38072 ft 436 kts 318°
2026-05-08 17:55 40.88450 23.22207 38064 ft 437 kts 318°
2026-05-08 17:55 40.93156 23.17153 38078 ft 442 kts 318°
2026-05-08 17:56 40.97970 23.11974 38082 ft 449 kts 318°
2026-05-08 17:56 41.02848 23.06718 38077 ft 454 kts 318°
2026-05-08 17:57 41.07751 23.01427 38085 ft 456 kts 318°
2026-05-08 17:57 41.12273 22.95599 38077 ft 452 kts 308°
2026-05-08 17:58 41.16280 22.89155 38067 ft 453 kts 307°
2026-05-08 17:58 41.20283 22.82770 38069 ft 453 kts 308°
2026-05-08 17:59 41.24337 22.76375 38064 ft 452 kts 308°
2026-05-08 17:59 41.28487 22.70110 38061 ft 451 kts 310°
2026-05-08 18:00 41.32739 22.63972 38061 ft 450 kts 310°
2026-05-08 18:00 41.39048 22.54802 38067 ft 449 kts 310°
2026-05-08 18:01 41.43239 22.48648 38057 ft 448 kts 310°
2026-05-08 18:01 41.47418 22.42488 38068 ft 448 kts 310°
2026-05-08 18:02 41.50889 22.37362 38043 ft 448 kts 310°
2026-05-08 18:02 41.55760 22.30155 38042 ft 447 kts 310°
2026-05-08 18:03 41.59895 22.24024 38044 ft 447 kts 310°
2026-05-08 18:03 41.64051 22.17849 38042 ft 447 kts 310°
2026-05-08 18:04 41.68209 22.11657 38046 ft 448 kts 310°
2026-05-08 18:04 41.72340 22.05494 38040 ft 448 kts 310°
2026-05-08 18:05 41.76498 21.99278 38047 ft 448 kts 310°
2026-05-08 18:05 41.80654 21.93050 38031 ft 449 kts 310°
2026-05-08 18:06 41.84811 21.86810 38049 ft 448 kts 310°
2026-05-08 18:06 41.88936 21.80603 38049 ft 449 kts 310°
2026-05-08 18:07 41.93084 21.74347 38061 ft 449 kts 310°
2026-05-08 18:07 41.97231 21.68081 38042 ft 448 kts 310°
2026-05-08 18:08 42.01372 21.61811 38047 ft 448 kts 310°
2026-05-08 18:08 42.05502 21.55543 38030 ft 448 kts 310°
2026-05-08 18:09 42.09603 21.49305 38038 ft 448 kts 310°
2026-05-08 18:09 42.13725 21.43024 38033 ft 448 kts 309°
2026-05-08 18:10 42.17829 21.36716 38040 ft 447 kts 309°
2026-05-08 18:10 42.21859 21.30329 38052 ft 447 kts 308°
2026-05-08 18:11 42.25850 21.23965 38046 ft 447 kts 308°
2026-05-08 18:11 42.29872 21.17554 38046 ft 447 kts 309°
2026-05-08 18:12 42.33894 21.11145 38057 ft 447 kts 308°
2026-05-08 18:12 42.37905 21.04741 38046 ft 446 kts 308°
2026-05-08 18:13 42.41912 20.98330 38049 ft 446 kts 308°
2026-05-08 18:13 42.45886 20.91956 38051 ft 446 kts 308°
2026-05-08 18:14 42.49882 20.85534 38048 ft 446 kts 308°
2026-05-08 18:14 42.53879 20.79095 38059 ft 447 kts 308°
2026-05-08 18:15 42.57875 20.72645 38045 ft 447 kts 308°
2026-05-08 18:15 42.61844 20.66224 38045 ft 447 kts 308°
2026-05-08 18:16 42.65838 20.59748 38043 ft 447 kts 308°
2026-05-08 18:16 42.69827 20.53266 38040 ft 447 kts 308°
2026-05-08 18:17 42.73814 20.46774 38049 ft 447 kts 308°
2026-05-08 18:17 42.77771 20.40315 38046 ft 448 kts 308°
2026-05-08 18:18 42.81758 20.33795 38044 ft 448 kts 308°
2026-05-08 18:18 42.85741 20.27267 38050 ft 448 kts 308°
2026-05-08 18:19 42.89728 20.20720 38032 ft 449 kts 308°
2026-05-08 18:19 42.93683 20.14211 38035 ft 449 kts 308°
2026-05-08 18:20 42.97662 20.07647 38041 ft 449 kts 308°
2026-05-08 18:20 43.01636 20.01076 38031 ft 448 kts 307°
2026-05-08 18:21 43.05602 19.94503 38028 ft 448 kts 307°
2026-05-08 18:21 43.09542 19.87960 38027 ft 448 kts 307°
2026-05-08 18:22 43.13500 19.81371 38032 ft 448 kts 307°
2026-05-08 18:22 43.17457 19.74768 38015 ft 448 kts 307°
2026-05-08 18:23 43.21406 19.68164 38014 ft 448 kts 307°
2026-05-08 18:23 43.25348 19.61557 38027 ft 448 kts 307°
2026-05-08 18:24 43.29263 19.54981 38021 ft 447 kts 307°
2026-05-08 18:24 43.33196 19.48359 38025 ft 448 kts 307°
2026-05-08 18:25 43.37131 19.41719 38023 ft 448 kts 307°
2026-05-08 18:25 43.41062 19.35062 38017 ft 448 kts 307°
2026-05-08 18:26 43.44956 19.28450 38012 ft 448 kts 307°
2026-05-08 18:26 43.48871 19.21787 38015 ft 447 kts 307°
2026-05-08 18:27 43.52114 19.16259 38024 ft 446 kts 307°
2026-05-08 18:27 43.56677 19.08467 38016 ft 447 kts 307°
2026-05-08 18:28 43.60554 19.01834 38009 ft 448 kts 307°
2026-05-08 18:28 43.64457 18.95140 38017 ft 448 kts 307°
2026-05-08 18:29 43.68360 18.88431 38026 ft 448 kts 306°
2026-05-08 18:29 43.72261 18.81708 38018 ft 448 kts 306°
2026-05-08 18:30 43.75498 18.76118 38023 ft 448 kts 306°
2026-05-08 18:30 43.80017 18.68295 38025 ft 448 kts 306°
2026-05-08 18:31 43.83906 18.61547 38037 ft 448 kts 306°
2026-05-08 18:31 43.87785 18.54798 38015 ft 448 kts 306°
2026-05-08 18:32 43.91665 18.48034 38020 ft 448 kts 306°
2026-05-08 18:32 43.95597 18.41405 38023 ft 449 kts 309°
2026-05-08 18:33 43.99761 18.34941 38018 ft 449 kts 309°
2026-05-08 18:33 44.03935 18.28495 38033 ft 449 kts 309°
2026-05-08 18:34 44.08083 18.22014 38024 ft 449 kts 309°
2026-05-08 18:34 44.12220 18.15501 38038 ft 449 kts 309°
2026-05-08 18:35 44.16326 18.09018 38039 ft 449 kts 309°
2026-05-08 18:35 44.20458 18.02482 38026 ft 449 kts 308°
2026-05-08 18:36 44.24584 17.95940 38029 ft 449 kts 308°
2026-05-08 18:36 44.28701 17.89398 38020 ft 448 kts 308°
2026-05-08 18:37 44.32779 17.82901 38027 ft 448 kts 308°
2026-05-08 18:37 44.36882 17.76353 38049 ft 448 kts 308°
2026-05-08 18:38 44.40968 17.69763 38046 ft 448 kts 308°
2026-05-08 18:38 44.45035 17.63150 38048 ft 449 kts 308°
2026-05-08 18:39 44.49109 17.56514 38041 ft 449 kts 308°
2026-05-08 18:39 44.53154 17.49916 38055 ft 450 kts 308°
2026-05-08 18:40 44.57228 17.43257 38035 ft 450 kts 308°
2026-05-08 18:40 44.61293 17.36598 38041 ft 449 kts 308°
2026-05-08 18:41 44.65365 17.29945 38053 ft 449 kts 308°
2026-05-08 18:41 44.69448 17.23380 38061 ft 449 kts 308°
2026-05-08 18:42 44.73559 17.16756 38042 ft 450 kts 308°
2026-05-08 18:42 44.77666 17.10106 38037 ft 450 kts 308°
2026-05-08 18:43 44.81758 17.03462 38043 ft 449 kts 308°
2026-05-08 18:43 44.85730 16.96682 38064 ft 448 kts 304°
2026-05-08 18:44 44.89389 16.89650 38038 ft 447 kts 303°
2026-05-08 18:44 44.93042 16.82543 38044 ft 448 kts 303°
2026-05-08 18:45 44.96725 16.75454 38038 ft 448 kts 303°
2026-05-08 18:45 45.00421 16.68363 38038 ft 448 kts 303°
2026-05-08 18:46 45.04088 16.61316 38042 ft 448 kts 303°
2026-05-08 18:46 45.07777 16.54204 38031 ft 448 kts 303°
2026-05-08 18:47 45.11458 16.47090 38039 ft 448 kts 303°
2026-05-08 18:47 45.15186 16.40018 38032 ft 449 kts 305°
2026-05-08 18:48 45.19058 16.33157 38051 ft 449 kts 306°
2026-05-08 18:48 45.22977 16.26255 38035 ft 449 kts 306°
2026-05-08 18:49 45.26874 16.19318 38025 ft 449 kts 305°
2026-05-08 18:49 45.30754 16.12357 38026 ft 449 kts 305°
2026-05-08 18:50 45.34623 16.05386 38056 ft 449 kts 305°
2026-05-08 18:50 45.37839 15.99578 38035 ft 450 kts 305°
2026-05-08 18:51 45.42331 15.91449 38036 ft 450 kts 305°
2026-05-08 18:51 45.46195 15.84437 38043 ft 450 kts 305°
2026-05-08 18:52 45.50054 15.77418 38034 ft 450 kts 305°
2026-05-08 18:52 45.53914 15.70379 38042 ft 450 kts 304°
2026-05-08 18:53 45.57767 15.63337 38038 ft 450 kts 304°
2026-05-08 18:53 45.61589 15.56332 38036 ft 450 kts 304°
2026-05-08 18:54 45.65429 15.49278 38040 ft 450 kts 304°
2026-05-08 18:54 45.69266 15.42210 38036 ft 450 kts 304°
2026-05-08 18:55 45.75015 15.31589 38041 ft 450 kts 304°
2026-05-08 18:56 45.78817 15.24542 38047 ft 450 kts 304°
2026-05-08 18:56 45.82644 15.17431 38040 ft 450 kts 304°
2026-05-08 18:57 45.86465 15.10313 38052 ft 451 kts 304°
2026-05-08 18:57 45.89642 15.04381 38043 ft 451 kts 304°
2026-05-08 18:58 45.93465 14.97227 38042 ft 451 kts 304°
2026-05-08 18:58 45.97903 14.88899 38040 ft 452 kts 304°
2026-05-08 18:59 46.01720 14.81716 38046 ft 452 kts 304°
2026-05-08 18:59 46.04889 14.75739 38048 ft 452 kts 304°
2026-05-08 19:00 46.08700 14.68532 38036 ft 452 kts 304°
2026-05-08 19:00 46.12505 14.61319 38051 ft 452 kts 304°
2026-05-08 19:01 46.16917 14.52932 38052 ft 452 kts 304°
2026-05-08 19:01 46.20095 14.46874 38061 ft 452 kts 304°
2026-05-08 19:02 46.23861 14.39682 38048 ft 452 kts 304°
2026-05-08 19:02 46.27840 14.32658 38056 ft 454 kts 312°
2026-05-08 19:03 46.32420 14.26336 38046 ft 456 kts 313°
2026-05-08 19:03 46.37019 14.20033 38049 ft 455 kts 313°
2026-05-08 19:04 46.41543 14.13694 38053 ft 456 kts 313°
2026-05-08 19:04 46.46083 14.07284 38049 ft 456 kts 313°
2026-05-08 19:05 46.50473 14.00681 38049 ft 453 kts 306°
2026-05-08 19:05 46.54334 13.93486 38061 ft 451 kts 304°
2026-05-08 19:06 46.58121 13.86209 38050 ft 451 kts 304°
2026-05-08 19:06 46.61913 13.79002 38052 ft 452 kts 304°
2026-05-08 19:07 46.65751 13.71768 38058 ft 451 kts 304°
2026-05-08 19:07 46.69587 13.64543 38064 ft 451 kts 304°
2026-05-08 19:08 46.73395 13.57354 38061 ft 451 kts 304°
2026-05-08 19:08 46.77223 13.50104 38075 ft 451 kts 305°
2026-05-08 19:09 46.81050 13.42837 38079 ft 452 kts 304°
2026-05-08 19:09 46.84879 13.35546 38079 ft 452 kts 304°
2026-05-08 19:10 46.88705 13.28242 38086 ft 453 kts 304°
2026-05-08 19:10 46.92502 13.20972 38074 ft 453 kts 304°
2026-05-08 19:11 46.96321 13.13643 38077 ft 453 kts 304°
2026-05-08 19:11 47.00134 13.06308 38087 ft 452 kts 304°
2026-05-08 19:12 47.03938 12.98967 38079 ft 453 kts 304°
2026-05-08 19:12 47.07720 12.91649 38077 ft 454 kts 304°
2026-05-08 19:13 47.11520 12.84279 38088 ft 453 kts 304°
2026-05-08 19:13 47.15322 12.76884 38077 ft 453 kts 304°
2026-05-08 19:14 47.19117 12.69484 38055 ft 453 kts 304°
2026-05-08 19:14 47.22877 12.62132 38075 ft 453 kts 304°
2026-05-08 19:15 47.26655 12.54722 38064 ft 453 kts 304°
2026-05-08 19:15 47.30433 12.47295 38068 ft 453 kts 304°
2026-05-08 19:16 47.34201 12.39868 38077 ft 452 kts 304°
2026-05-08 19:16 47.37936 12.32485 38071 ft 452 kts 304°
2026-05-08 19:17 47.41693 12.25040 38058 ft 451 kts 304°
2026-05-08 19:17 47.45438 12.17596 38053 ft 452 kts 304°
2026-05-08 19:18 47.49183 12.10131 38038 ft 452 kts 304°
2026-05-08 19:18 47.52902 12.02703 38036 ft 452 kts 304°
2026-05-08 19:19 47.56652 11.95226 38034 ft 452 kts 304°
2026-05-08 19:19 47.60415 11.87758 38033 ft 453 kts 304°
2026-05-08 19:20 47.64176 11.80275 38044 ft 453 kts 304°
2026-05-08 19:20 47.67906 11.72827 38035 ft 452 kts 304°
2026-05-08 19:21 47.71647 11.65331 38039 ft 452 kts 304°
2026-05-08 19:21 47.75381 11.57829 38040 ft 451 kts 304°
2026-05-08 19:22 47.79107 11.50320 38038 ft 451 kts 304°
2026-05-08 19:22 47.82827 11.42803 38063 ft 451 kts 304°
2026-05-08 19:23 47.86539 11.35283 38062 ft 451 kts 304°
2026-05-08 19:23 47.90219 11.27806 38081 ft 451 kts 304°
2026-05-08 19:24 47.93917 11.20273 38062 ft 451 kts 304°
2026-05-08 19:24 47.97618 11.12713 38055 ft 451 kts 304°
2026-05-08 19:25 48.01311 11.05148 38062 ft 451 kts 304°
2026-05-08 19:25 48.05000 10.97569 38056 ft 451 kts 304°
2026-05-08 19:26 48.08660 10.90031 38051 ft 451 kts 303°
2026-05-08 19:26 48.12341 10.82427 38045 ft 451 kts 303°
2026-05-08 19:27 48.16016 10.74814 38055 ft 451 kts 303°
2026-05-08 19:27 48.19690 10.67182 38052 ft 451 kts 303°
2026-05-08 19:28 48.23333 10.59594 38056 ft 451 kts 303°
2026-05-08 19:28 48.26994 10.51946 38062 ft 451 kts 303°
2026-05-08 19:29 48.30649 10.44290 38069 ft 451 kts 303°
2026-05-08 19:29 48.34298 10.36623 38075 ft 451 kts 303°
2026-05-08 19:30 48.37942 10.28946 38071 ft 451 kts 303°
2026-05-08 19:30 48.41576 10.21269 38071 ft 450 kts 303°
2026-05-08 19:31 48.45222 10.13671 38072 ft 451 kts 304°
2026-05-08 19:31 48.49025 10.06156 38067 ft 451 kts 305°
2026-05-08 19:32 48.52837 9.98653 38087 ft 451 kts 305°
2026-05-08 19:32 48.56629 9.91116 38071 ft 451 kts 305°
2026-05-08 19:33 48.60409 9.83547 38075 ft 452 kts 305°
2026-05-08 19:33 48.64159 9.76007 38061 ft 451 kts 305°
2026-05-08 19:34 48.67925 9.68414 38087 ft 451 kts 304°
2026-05-08 19:34 48.71690 9.60803 38072 ft 452 kts 304°
2026-05-08 19:35 48.75454 9.53172 38072 ft 452 kts 304°
2026-05-08 19:35 48.79218 9.45521 38069 ft 453 kts 304°
2026-05-08 19:36 48.82978 9.37854 38078 ft 453 kts 304°
2026-05-08 19:36 48.86707 9.30230 38075 ft 453 kts 304°
2026-05-08 19:37 48.90459 9.22538 38079 ft 453 kts 304°
2026-05-08 19:37 48.94202 9.14841 38082 ft 452 kts 304°
2026-05-08 19:38 48.97942 9.07128 38071 ft 453 kts 304°
2026-05-08 19:38 49.01677 8.99403 38078 ft 453 kts 304°
2026-05-08 19:39 49.05385 8.91713 38071 ft 453 kts 304°
2026-05-08 19:39 49.09114 8.83957 38084 ft 453 kts 304°
2026-05-08 19:40 49.12836 8.76192 38075 ft 453 kts 304°
2026-05-08 19:40 49.16553 8.68416 38077 ft 453 kts 304°
2026-05-08 19:41 49.20262 8.60635 38079 ft 453 kts 304°
2026-05-08 19:41 49.23943 8.52887 38093 ft 454 kts 304°
2026-05-08 19:42 49.27648 8.45068 38093 ft 454 kts 304°
2026-05-08 19:42 49.31350 8.37231 38078 ft 454 kts 304°
2026-05-08 19:43 49.35048 8.29383 38080 ft 454 kts 304°
2026-05-08 19:43 49.38738 8.21525 38079 ft 454 kts 304°
2026-05-08 19:44 49.42426 8.13649 38083 ft 454 kts 304°
2026-05-08 19:44 49.46083 8.05818 38089 ft 454 kts 304°
2026-05-08 19:45 49.49762 7.97915 38084 ft 454 kts 304°
2026-05-08 19:45 49.53432 7.90007 38082 ft 454 kts 304°
2026-05-08 19:46 49.57100 7.82082 38078 ft 454 kts 304°
2026-05-08 19:46 49.62592 7.70170 38086 ft 454 kts 304°
2026-05-08 19:47 49.66246 7.62214 38089 ft 454 kts 304°
2026-05-08 19:47 49.69894 7.54248 38088 ft 454 kts 304°
2026-05-08 19:48 49.73530 7.46285 38112 ft 454 kts 304°
2026-05-08 19:48 49.77139 7.38356 38101 ft 454 kts 304°
2026-05-08 19:49 49.80766 7.30366 38105 ft 454 kts 304°
2026-05-08 19:49 49.84387 7.22363 38108 ft 454 kts 304°
2026-05-08 19:50 49.88003 7.14348 38114 ft 454 kts 304°
2026-05-08 19:50 49.91613 7.06321 38117 ft 454 kts 304°
2026-05-08 19:51 49.95194 6.98335 38105 ft 454 kts 303°
2026-05-08 19:51 49.98791 6.90288 38086 ft 454 kts 303°
2026-05-08 19:52 50.02384 6.82228 38087 ft 454 kts 304°
2026-05-08 19:52 50.05974 6.74147 38081 ft 454 kts 304°
2026-05-08 19:53 50.09557 6.66058 38089 ft 454 kts 303°
2026-05-08 19:53 50.13111 6.58010 38091 ft 454 kts 303°
2026-05-08 19:54 50.16688 6.49886 38120 ft 454 kts 303°
2026-05-08 19:54 50.20270 6.41766 38119 ft 454 kts 304°
2026-05-08 19:55 50.23897 6.33713 38115 ft 453 kts 304°
2026-05-08 19:55 50.27526 6.25669 38120 ft 453 kts 304°
2026-05-08 19:56 50.31117 6.17661 38118 ft 453 kts 304°
2026-05-08 19:56 50.34721 6.09584 38119 ft 452 kts 304°
2026-05-08 19:57 50.38317 6.01499 38119 ft 452 kts 304°
2026-05-08 19:57 50.41902 5.93411 38118 ft 451 kts 304°
2026-05-08 19:58 50.45475 5.85327 38116 ft 450 kts 304°
2026-05-08 19:58 50.49014 5.77297 38115 ft 450 kts 304°
2026-05-08 19:59 50.52570 5.69202 38122 ft 450 kts 304°
2026-05-08 19:59 50.56119 5.61097 38118 ft 450 kts 304°
2026-05-08 20:00 50.59655 5.52999 38123 ft 449 kts 304°
2026-05-08 20:00 50.63178 5.44905 38096 ft 448 kts 304°
2026-05-08 20:01 50.66666 5.36865 38131 ft 447 kts 304°
2026-05-08 20:01 50.70167 5.28772 38129 ft 446 kts 304°
2026-05-08 20:02 50.73659 5.20674 38125 ft 446 kts 304°
2026-05-08 20:02 50.77144 5.12567 38131 ft 446 kts 304°
2026-05-08 20:03 50.80588 5.04524 38110 ft 444 kts 303°
2026-05-08 20:03 50.83802 4.96205 38114 ft 442 kts 300°
2026-05-08 20:04 50.86874 4.87784 38113 ft 442 kts 300°
2026-05-08 20:04 50.89950 4.79373 38113 ft 441 kts 300°
2026-05-08 20:05 50.93042 4.70973 38119 ft 441 kts 300°
2026-05-08 20:05 50.96109 4.62640 38130 ft 440 kts 300°
2026-05-08 20:06 50.99187 4.54255 38129 ft 439 kts 300°
2026-05-08 20:06 51.02252 4.45876 38130 ft 439 kts 300°
2026-05-08 20:07 51.05312 4.37482 38127 ft 439 kts 300°
2026-05-08 20:07 51.08363 4.29083 38127 ft 439 kts 300°
2026-05-08 20:08 51.11389 4.20725 38126 ft 439 kts 300°
2026-05-08 20:08 51.14431 4.12296 38120 ft 439 kts 300°
2026-05-08 20:09 51.17466 4.03860 38119 ft 439 kts 300°
2026-05-08 20:09 51.20499 3.95402 38111 ft 439 kts 300°
2026-05-08 20:10 51.23562 3.87052 38101 ft 439 kts 304°
2026-05-08 20:10 51.27534 3.79651 38104 ft 439 kts 312°
2026-05-08 20:11 51.31643 3.72411 38107 ft 440 kts 311°
2026-05-08 20:11 51.35174 3.64468 38118 ft 439 kts 297°
2026-05-08 20:12 51.37255 3.55289 38123 ft 440 kts 286°
2026-05-08 20:12 51.38838 3.45882 38114 ft 441 kts 286°
2026-05-08 20:13 51.40460 3.36377 37589 ft 444 kts 287°
2026-05-08 20:13 51.41280 3.31639 37007 ft 438 kts 287°
2026-05-08 20:13 51.42089 3.26973 36448 ft 433 kts 287°
2026-05-08 20:14 51.42894 3.22333 35829 ft 431 kts 288°
2026-05-08 20:14 51.43694 3.17716 35159 ft 430 kts 288°
2026-05-08 20:14 51.44490 3.13093 34489 ft 430 kts 288°
2026-05-08 20:14 51.45267 3.08545 33901 ft 427 kts 288°
2026-05-08 20:15 51.46023 3.03995 33481 ft 418 kts 288°
2026-05-08 20:15 51.46765 2.99483 33040 ft 423 kts 288°
2026-05-08 20:15 51.47528 2.94847 32522 ft 435 kts 288°
2026-05-08 20:15 51.48303 2.90119 32005 ft 440 kts 288°
2026-05-08 20:16 51.49074 2.85393 31480 ft 435 kts 287°
2026-05-08 20:16 51.49834 2.80724 30992 ft 430 kts 287°
2026-05-08 20:16 51.50586 2.76095 30502 ft 426 kts 287°
2026-05-08 20:16 51.51330 2.71517 29992 ft 425 kts 287°
2026-05-08 20:17 51.52092 2.66827 29439 ft 442 kts 286°
2026-05-08 20:17 51.52860 2.62082 28877 ft 447 kts 286°
2026-05-08 20:17 51.53637 2.57259 28326 ft 446 kts 286°
2026-05-08 20:17 51.54409 2.52451 27778 ft 443 kts 286°
2026-05-08 20:18 51.55242 2.47678 27206 ft 446 kts 290°
2026-05-08 20:18 51.56310 2.42962 26618 ft 452 kts 292°
2026-05-08 20:18 51.57431 2.38264 26060 ft 451 kts 291°
2026-05-08 20:18 51.58533 2.33564 25806 ft 445 kts 291°
2026-05-08 20:19 51.59608 2.28883 25547 ft 448 kts 291°
2026-05-08 20:19 51.60679 2.24168 25049 ft 448 kts 290°
2026-05-08 20:19 51.61726 2.19539 24541 ft 445 kts 290°
2026-05-08 20:19 51.62934 2.14973 24002 ft 443 kts 300°
2026-05-08 20:20 51.64771 2.11032 23457 ft 440 kts 314°
2026-05-08 20:20 51.67065 2.07845 23011 ft 434 kts 325°
2026-05-08 20:20 51.69659 2.05411 22433 ft 427 kts 327°
2026-05-08 20:20 51.71870 2.02287 21682 ft 423 kts 310°
2026-05-08 20:21 51.73533 1.98394 20916 ft 419 kts 297°
2026-05-08 20:21 51.74677 1.94144 20535 ft 415 kts 288°
2026-05-08 20:21 51.75598 1.89666 20151 ft 435 kts 287°
2026-05-08 20:21 51.76532 1.85013 19709 ft 437 kts 287°
2026-05-08 20:22 51.77470 1.80340 19278 ft 437 kts 287°
2026-05-08 20:22 51.78409 1.75691 18855 ft 435 kts 287°
2026-05-08 20:22 51.79353 1.71053 18428 ft 434 kts 287°
2026-05-08 20:22 51.79977 1.67996 18117 ft 432 kts 287°
2026-05-08 20:23 51.81235 1.61858 17505 ft 428 kts 287°
2026-05-08 20:23 51.82166 1.57315 17073 ft 424 kts 287°
2026-05-08 20:23 51.83087 1.52815 16667 ft 420 kts 287°
2026-05-08 20:23 51.83999 1.48349 16251 ft 417 kts 287°
2026-05-08 20:24 51.84892 1.43963 15857 ft 414 kts 287°
2026-05-08 20:24 51.85790 1.39544 15453 ft 412 kts 287°
2026-05-08 20:24 51.86681 1.35147 15056 ft 411 kts 287°
2026-05-08 20:24 51.87567 1.30765 14663 ft 409 kts 287°
2026-05-08 20:25 51.88448 1.26396 14266 ft 407 kts 287°
2026-05-08 20:25 51.89322 1.22054 13864 ft 405 kts 287°
2026-05-08 20:25 51.90191 1.17730 13428 ft 403 kts 287°
2026-05-08 20:25 51.91051 1.13437 13006 ft 399 kts 287°
2026-05-08 20:26 51.91903 1.09174 12607 ft 396 kts 287°
2026-05-08 20:26 51.92736 1.05002 12231 ft 393 kts 287°
2026-05-08 20:26 51.93570 1.00813 11854 ft 390 kts 287°
2026-05-08 20:26 51.94397 0.96650 11472 ft 387 kts 287°
2026-05-08 20:27 51.95218 0.92506 11100 ft 385 kts 287°
2026-05-08 20:27 51.96033 0.88388 10729 ft 383 kts 287°
2026-05-08 20:27 51.96843 0.84287 10355 ft 381 kts 287°
2026-05-08 20:27 51.97640 0.80241 10071 ft 366 kts 287°
2026-05-08 20:28 51.98385 0.76452 9894 ft 340 kts 287°
2026-05-08 20:28 51.99077 0.72927 9716 ft 315 kts 287°
2026-05-08 20:28 51.99712 0.69695 9572 ft 294 kts 287°
2026-05-08 20:28 52.00311 0.66632 9422 ft 276 kts 287°
2026-05-08 20:29 52.00874 0.63751 9305 ft 260 kts 287°
2026-05-08 20:29 52.01403 0.61036 9192 ft 245 kts 287°
2026-05-08 20:29 52.01720 0.58396 8860 ft 239 kts 266°
2026-05-08 20:29 52.01491 0.55704 8381 ft 241 kts 262°
2026-05-08 20:30 52.01288 0.53003 7939 ft 242 kts 264°
2026-05-08 20:30 52.01118 0.50278 7495 ft 243 kts 264°
2026-05-08 20:30 52.00962 0.47554 7096 ft 243 kts 264°
2026-05-08 20:30 52.00826 0.44839 6679 ft 244 kts 265°
2026-05-08 20:31 52.00715 0.42098 6301 ft 243 kts 266°
2026-05-08 20:31 52.00608 0.39366 6042 ft 244 kts 266°
2026-05-08 20:31 52.00499 0.36622 6013 ft 244 kts 266°
2026-05-08 20:31 52.00388 0.33881 6020 ft 244 kts 265°
2026-05-08 20:32 52.00272 0.31043 6033 ft 260 kts 266°
2026-05-08 20:32 52.00092 0.28111 6002 ft 263 kts 254°
2026-05-08 20:32 51.99148 0.25643 6031 ft 260 kts 223°
2026-05-08 20:32 51.97796 0.23665 6013 ft 264 kts 221°
2026-05-08 20:33 51.96442 0.21692 5903 ft 268 kts 221°
2026-05-08 20:33 51.95041 0.19627 5476 ft 271 kts 221°
2026-05-08 20:33 51.93684 0.17602 5127 ft 258 kts 221°
2026-05-08 20:33 51.92400 0.15673 4748 ft 246 kts 221°
2026-05-08 20:34 51.91182 0.13837 4414 ft 232 kts 221°
2026-05-08 20:34 51.90031 0.12099 4086 ft 221 kts 221°
2026-05-08 20:34 51.87888 0.08867 3506 ft 200 kts 221°
2026-05-08 20:35 51.86897 0.07374 3226 ft 191 kts 221°
2026-05-08 20:35 51.85942 0.05935 3041 ft 181 kts 221°
2026-05-08 20:35 51.85028 0.04542 3002 ft 182 kts 221°
2026-05-08 20:35 51.84098 0.03124 2968 ft 186 kts 221°
2026-05-08 20:36 51.83152 0.01682 2923 ft 188 kts 221°
2026-05-08 20:36 51.82200 0.00231 2874 ft 187 kts 221°
2026-05-08 20:36 51.81256 -0.01206 2836 ft 186 kts 221°
2026-05-08 20:36 51.80214 -0.02312 2760 ft 182 kts 190°
2026-05-08 20:37 51.79003 -0.02029 2755 ft 179 kts 150°
2026-05-08 20:37 51.78034 -0.00765 2744 ft 181 kts 136°
2026-05-08 20:37 51.77144 0.00699 2600 ft 185 kts 130°
2026-05-08 20:37 51.76553 0.02495 2515 ft 182 kts 104°
2026-05-08 20:38 51.76541 0.04483 2487 ft 178 kts 72°
2026-05-08 20:38 51.77271 0.06094 2526 ft 181 kts 51°
2026-05-08 20:38 51.78101 0.07658 2502 ft 186 kts 50°
2026-05-08 20:38 51.79001 0.09155 2511 ft 186 kts 46°
2026-05-08 20:39 51.79941 0.10592 2454 ft 187 kts 45°
2026-05-08 20:39 51.80850 0.11960 2230 ft 173 kts 46°
2026-05-08 20:39 51.81678 0.13206 2019 ft 155 kts 46°
2026-05-08 20:39 51.82439 0.14353 1806 ft 147 kts 46°
2026-05-08 20:40 51.83175 0.15463 1626 ft 144 kts 46°
2026-05-08 20:40 51.83906 0.16566 1424 ft 144 kts 46°
2026-05-08 20:40 51.84637 0.17668 1226 ft 145 kts 46°
2026-05-08 20:40 51.85367 0.18767 1021 ft 142 kts 45°
2026-05-08 20:41 51.86089 0.19854 817 ft 142 kts 46°
2026-05-08 20:41 51.86803 0.20938 631 ft 141 kts 46°
2026-05-08 20:41 51.87526 0.22016 423 ft 141 kts 45°
2026-05-08 20:41 51.88223 0.23063 335 ft 131 kts 45°
2026-05-08 20:42 51.88742 0.23844 337 ft 71 kts 43°
2026-05-08 20:42 51.89032 0.24300 353 ft 54 kts 53°
2026-05-08 20:42 51.89117 0.24609 340 ft 20 kts 69°
2026-05-08 20:42 51.89150 0.24741 347 ft 6 kts 65°
2026-05-08 20:43 51.89161 0.24783 344 ft 4 kts 68°
2026-05-08 20:43 51.89164 0.24792 350 ft 0 kts 68°
2026-05-08 20:43 51.89166 0.24844 346 ft 9 kts 99°
2026-05-08 20:44 51.89150 0.24892 354 ft 3 kts 150°
2026-05-08 20:44 51.89100 0.24869 354 ft 13 kts 218°
2026-05-08 20:44 51.89015 0.24859 350 ft 14 kts 138°
2026-05-08 20:44 51.88970 0.24990 354 ft 13 kts 107°
2026-05-08 20:45 51.88919 0.25108 349 ft 13 kts 134°
2026-05-08 20:45 51.88879 0.25177 348 ft 13 kts 133°
2026-05-08 20:45 51.88801 0.25315 352 ft 12 kts 133°
2026-05-08 20:45 51.88784 0.25384 351 ft 5 kts 64°
2026-05-08 20:46 51.88815 0.25434 348 ft 5 kts 42°
2026-05-08 20:46 51.88818 0.25439 352 ft 0 kts 42°